Regional Weather Roundup
Issued by NWS

Home | Current Version | Previous Version | Graphics & Text | Print | Product List | Glossary Off
Versions: 1 2 3 4 5 6 7 8 9 10 11 12 13 14 15 16 17 18 19 20 21 22 23 24 25 26 27 28 29 30 31 32 33 34 35 36 37 38 39 40 41 42 43 44 45 46 47 48 49 50

000
ASUS43 KTOP 170659
RWRKS

WEATHER ROUNDUP FOR KANSAS
NATIONAL WEATHER SERVICE GOODLAND KS
100 AM CST SAT FEB 17 2018

NOTE:  "FAIR" INDICATES FEW OR NO CLOUDS BELOW 12,000 FEET WITH NO
SIGNIFICANT WEATHER AND/OR OBSTRUCTIONS TO VISIBILITY.

KSZ001>006-013>018-027>032-041>047-170800-
NORTHWEST KANSAS

CITY           SKY/WX    TMP DP  RH WIND       PRES   REMARKS
GOODLAND       CLOUDY    29  18  63 SW9       29.81S
HAYS           CLOUDY    30  17  58 S12       29.94F WCI  20
HILL CITY      CLOUDY    28  17  63 S6        29.90F
RUSSELL        CLOUDY    32  16  51 S17       29.94F WCI  21
$$

KSZ061>065-074>080-084>089-170800-
SOUTHWEST KANSAS

CITY           SKY/WX    TMP DP  RH WIND       PRES   REMARKS
DODGE CITY     CLOUDY    33  16  49 S17       29.92F WCI  22
GARDEN CITY    CLOUDY    32  17  54 S18G28    29.86F WCI  20
GREAT BEND     CLOUDY    32  15  49 S14       29.98F WCI  22
LIBERAL        CLOUDY    39  28  64 S22       29.90F WCI  29
$$

KSZ066>073-081>083-090>101-170800-
SOUTHEAST KANSAS

CITY           SKY/WX    TMP DP  RH WIND       PRES   REMARKS
CHANUTE        CLOUDY    35  21  56 SE8       30.11F
COFFEYVILLE    CLOUDY    37  25  61 E3        30.11F
HUTCHINSON     CLOUDY    34  17  50 S13       30.02F WCI  25
MEDICINE LODGE   N/A     36  18  48 S12       30.02F WCI  28
NEWTON         CLOUDY    33  17  51 S15       30.04F WCI  23
PARSONS        CLOUDY    37  24  59 SE5       30.12F
WICHITA INTL   CLOUDY    36  19  50 S15       30.04F WCI  27
WICHITA JABRA  CLOUDY    35  19  52 S15       30.05F WCI  25
WICHITA MCCONL CLOUDY    35  17  47 S12       30.05F WCI  27
WINFIELD       CLOUDY    36  22  56 SE6       30.11F
$$

KSZ007>012-019>026-033>040-048>060-102>105-170800-
NORTHEAST KANSAS

CITY           SKY/WX    TMP DP  RH WIND       PRES   REMARKS
CONCORDIA      CLOUDY    27  13  55 S13       30.02F WCI  16
EMPORIA        CLOUDY    32  16  51 SE13      30.07F WCI  22
LAWRENCE       MOCLDY    28  16  60 SE6       30.12F
MANHATTAN      MOCLDY    28  13  53 CALM      30.07F
OLATHE IND     CLOUDY    30  10  43 SE10      30.12F WCI  21
OLATHE EXE     PTCLDY    29  10  45 SE7       30.12F
SALINA         CLOUDY    32  15  49 S7        30.04F
TOPEKA BILLARD MOCLDY    31  16  54 SE7       30.10F
TOPEKA FORBES  MOCLDY    30  15  53 SE6       30.09F
$$




USA.gov is the U.S. government's official web portal to all federal, state and local government web resources and services.